Weather History for Roswell, NM

Change the Weather History Date:

Monday, March 17, 2014

  Actual Average Record
Temperature  
Mean Temperature 56 °F 53 °F  
Max Temperature 84 °F 69 °F 91 °F (1908)
Min Temperature 28 °F 37 °F 9 °F (1897)
Degree Days  
Heating Degree Days 9 12  
Month to date heating degree days 254 241  
Since 1 July heating degree days 2957 2948  
Cooling Degree Days 0 0  
Month to date cooling degree days 0 0  
Year to date cooling degree days 0 0  
Growing Degree Days 6 (Base 50)    
Moisture  
Dew Point 10 °F    
Average Humidity 27    
Maximum Humidity 49    
Minimum Humidity 4    
Precipitation  
Precipitation 0.00 in 0.01 in 1.22 in (1999)
Month to date precipitation 0.05 0.27  
Year to date precipitation 0.07 1.07  
Sea Level Pressure  
Sea Level Pressure 29.66 in    
Wind  
Wind Speed 13 mph (SSW)    
Max Wind Speed 32 mph    
Max Gust Speed 39 mph    
Visibility 9 miles    
Events      
T = Trace of Precipitation, MM = Missing Value Source: NWS Daily Summary

Daily Weather History Graph

Daily Weather History Graph

Search for Another Location

Airport:

Trip Planner

Search our weather history database for the weather conditions in past years. The results will help you decide how hot, cold, wet, or windy it might be!

Date:

Astronomy

Mar. 17, 2014 Rise Set
Actual Time 7:05 AM MDT 7:07 PM MDT
Civil Twilight 6:41 AM MDT 7:32 PM MDT
Nautical Twilight 6:12 AM MDT 8:01 PM MDT
Astronomical Twilight 5:43 AM MDT 8:30 PM MDT
Moon 8:21 PM MDT (3/17) 7:26 AM MDT (3/17)
Length of Visible Light 12h 51m
Length of Day
12h 01m
Full, 99% of the Moon is Illuminated
Mar 17
Full
Mar 23
Last Quarter
Mar 30
New
Apr 7
First Quarter
Apr 15
Full

Hourly Weather History & Observations

Time (MDT) Temp. Windchill Dew Point Humidity Pressure Visibility Wind Dir Wind Speed Gust Speed Precip Events Conditions
12:51 AM 37.0 °F 33.3 °F 12.0 °F 36% 30.02 in 10.0 mi South 4.6 mph - N/A   Clear
1:51 AM 36.0 °F 30.3 °F 14.0 °F 41% 30.01 in 10.0 mi SE 6.9 mph - N/A   Clear
2:51 AM 36.0 °F 30.3 °F 14.0 °F 41% 29.97 in 10.0 mi South 6.9 mph - N/A   Clear
3:51 AM 32.0 °F 26.4 °F 12.9 °F 45% 29.96 in 10.0 mi South 5.8 mph - N/A   Clear
4:51 AM 33.1 °F 28.7 °F 14.0 °F 46% 29.94 in 10.0 mi SSE 4.6 mph - N/A   Clear
5:51 AM 30.9 °F 27.5 °F 14.0 °F 50% 29.93 in 10.0 mi WSW 3.5 mph - N/A   Clear
6:51 AM 30.0 °F 24.1 °F 12.0 °F 47% 29.92 in 10.0 mi WSW 5.8 mph - N/A   Clear
7:51 AM 34.0 °F 31.0 °F 12.0 °F 40% 29.91 in 10.0 mi WSW 3.5 mph - N/A   Clear
8:51 AM 42.1 °F 37.1 °F 17.1 °F 37% 29.89 in 10.0 mi South 8.1 mph - N/A   Clear
9:51 AM 46.9 °F - 18.0 °F 32% 29.86 in 10.0 mi SSE 9.2 mph - N/A   Clear
10:51 AM 55.0 °F - 18.0 °F 23% 29.81 in 10.0 mi SSE 10.4 mph - N/A   Clear
11:51 AM 66.0 °F - 17.1 °F 15% 29.74 in 10.0 mi South 11.5 mph - N/A   Clear
12:51 PM 73.0 °F - 15.1 °F 11% 29.67 in 10.0 mi SSE 12.7 mph - N/A   Clear
1:51 PM 75.9 °F - 14.0 °F 10% 29.60 in 10.0 mi South 16.1 mph 25.3 mph N/A   Clear
2:51 PM 79.0 °F - 12.9 °F 8% 29.53 in 10.0 mi SSE 20.7 mph 25.3 mph N/A   Clear
3:51 PM 81.0 °F - 10.0 °F 7% 29.48 in 10.0 mi South 18.4 mph 26.5 mph N/A   Clear
4:44 PM 82.9 °F - -2.9 °F 4% 29.54 in 10.0 mi WSW 28.8 mph 39.1 mph N/A   Clear
4:51 PM 82.9 °F - -2.9 °F 4% 29.42 in 10.0 mi WSW 29.9 mph 36.8 mph N/A   Clear
5:45 PM 80.6 °F - 3.2 °F 5% 29.52 in 6.0 mi West 25.3 mph 33.4 mph N/A   Haze
5:51 PM 79.0 °F - 3.0 °F 5% 29.41 in 4.0 mi West 26.5 mph 33.4 mph N/A   Haze
5:59 PM 79.0 °F - 3.9 °F 6% 29.53 in 8.0 mi West 29.9 mph 36.8 mph N/A   Clear
6:51 PM 73.0 °F - 8.1 °F 8% 29.44 in 8.0 mi SW 20.7 mph 31.1 mph N/A   Clear
7:51 PM 68.0 °F - 8.1 °F 10% 29.42 in 10.0 mi SSW 18.4 mph - N/A   Clear
8:51 PM 64.9 °F - 8.1 °F 11% 29.40 in 10.0 mi SSW 16.1 mph 24.2 mph N/A   Clear
9:51 PM 66.0 °F - 7.0 °F 10% 29.39 in 10.0 mi SSW 21.9 mph 26.5 mph N/A   Clear
10:51 PM 59.0 °F - 6.1 °F 12% 29.41 in 10.0 mi South 6.9 mph - N/A   Clear
11:51 PM 64.9 °F - 6.1 °F 10% 29.38 in 10.0 mi WSW 13.8 mph - N/A   Clear